EHI
0 0 0 0 0 0 0 0 0 0 0 0 0 4 12 18 22 28 33 34 40 52 63 64 58 48 43 41 34 26 21 16 12 9 10 10 6 2 1 1 1 0 0 1
0 0 0 0 0 0 0 0 0 0 0 0 0 3 6 11 19 27 35 39 43 56 68 71 67 60 55 49 38 27 19 14 8 4 5 6 5 3 2 2 2 1 1 2
0 0 0 0 0 0 0 0 0 0 0 0 0 1 1 4 13 26 39 48 55 63 71 72 70 66 59 49 37 25 18 14 8 3 3 5 6 5 4 4 3 2 3 3
0 0 0 0 0 0 0 0 0 0 0 0 0 0 0 2 8 20 36 51 59 64 66 63 58 53 46 37 28 21 18 18 16 11 10 10 9 7 4 4 4 4 3 3
0 0 0 0 0 0 0 0 0 0 0 0 0 0 0 1 4 11 25 40 48 51 51 46 39 32 27 22 19 18 21 28 28 24 20 16 11 7 5 5 4 3 2 1
0 0 0 0 0 0 0 0 0 0 0 0 0 0 0 1 2 5 14 26 34 35 34 29 22 17 13 13 16 21 31 42 46 41 33 25 17 11 8 6 3 1 0 0
0 0 0 0 0 0 0 0 0 0 0 0 0 0 0 0 1 4 10 17 22 23 21 17 13 9 7 12 20 28 41 54 58 54 47 39 29 19 12 8 3 0 0 0
0 0 0 0 0 0 0 0 0 0 0 0 0 0 0 0 2 4 8 11 13 13 11 9 7 4 4 10 18 28 41 52 57 56 54 50 39 25 16 12 6 2 0 0
0 0 0 0 0 0 0 0 0 0 0 0 0 0 0 0 1 2 3 4 6 6 6 5 3 1 1 4 10 18 28 37 41 43 44 42 35 26 20 17 12 7 4 3
0 0 0 0 0 0 0 0 0 0 0 0 0 0 0 0 0 0 0 1 1 2 2 1 1 0 0 1 4 8 12 17 20 22 24 22 20 19 18 18 17 13 10 8
0 0 0 0 0 0 0 0 0 0 0 0 0 0 0 0 0 0 0 0 0 0 0 0 0 0 0 0 1 2 2 3 5 8 9 9 9 10 10 13 15 14 12 10
0 0 0 0 0 0 0 0 0 0 0 0 0 0 0 0 0 0 0 0 0 0 0 0 0 0 0 0 0 0 0 0 1 2 2 3 4 5 5 7 8 10 9 7
0 0 0 0 0 0 0 0 0 0 0 0 0 0 0 0 0 0 0 0 0 0 0 0 0 0 0 0 0 0 0 0 0 0 0 0 2 3 3 3 3 5 5 3
0 0 0 0 0 0 0 0 0 0 0 0 0 0 0 0 0 0 0 0 0 0 0 0 0 0 0 0 0 0 0 0 0 0 0 0 0 1 1 1 1 1 1 1
0 0 0 0 0 0 0 0 0 0 0 0 0 0 0 0 0 0 0 0 0 0 0 0 0 0 0 0 0 0 0 0 0 0 0 0 0 0 0 0 0 0 0 0
0 0 0 0 0 0 0 0 0 0 0 0 0 0 0 0 0 0 0 0 0 0 0 0 0 0 0 0 0 0 0 0 0 0 0 0 0 0 0 0 0 0 0 0
0 0 0 0 0 0 0 0 0 0 0 0 0 0 0 0 0 0 0 0 0 0 0 0 0 0 0 0 0 0 0 0 0 0 0 0 0 0 0 0 0 0 0 0
0 0 0 0 0 0 0 0 0 0 0 0 0 0 0 0 0 0 0 0 0 0 0 0 0 0 0 0 0 0 0 0 0 0 0 0 0 0 0 0 0 0 0 0
0 0 0 0 0 0 0 0 0 0 0 0 0 0 0 0 0 0 0 0 0 0 0 0 0 0 0 0 0 0 0 0 0 0 0 0 0 0 0 0 0 0 0 0
0 0 0 0 0 0 0 0 0 0 0 0 0 0 0 0 0 0 0 0 0 0 0 0 0 0 0 0 0 0 0 0 0 0 0 0 0 0 0 0 0 0 0 0
0 0 0 0 0 0 0 0 0 0 0 0 0 0 0 0 0 0 0 0 0 0 0 0 0 0 0 0 0 0 0 0 0 0 0 0 0 0 0 0 0 0 0 0
0 0 0 0 0 0 0 0 0 0 0 0 0 0 0 0 0 0 0 0 0 0 0 0 0 0 0 0 0 0 0 0 0 0 0 0 0 0 0 0 0 0 0 0
0 0 0 0 0 0 0 0 0 0 0 0 0 0 0 0 0 0 0 0 0 0 0 0 0 0 0 0 0 0 0 0 0 0 0 0 0 0 0 0 0 0 0 0
0 0 0 0 0 0 0 0 0 0 0 0 0 0 0 0 0 0 0 0 0 0 0 0 0 0 0 0 0 0 0 0 0 0 0 0 0 0 0 0 0 0 0 0
0 0 0 0 0 0 0 0 0 0 0 0 0 0 0 0 0 0 0 0 0 0 0 0 0 0 0 0 0 0 0 0 0 0 0 0 0 0 0 0 0 0 0 0
0 0 0 0 0 0 0 0 0 0 0 0 0 0 0 0 0 0 0 0 0 0 0 0 0 0 0 0 0 0 0 0 0 0 0 0 0 0 0 0 0 0 0 0
Wind_Speed
4 6 2 0 2 3 2 4 3 1 3 3 1 1 2 2 1 2 3 5 6 6 7 8 8 9 9 9 8 7 6 6 4 3 2 2 2 2 3 3 3 5 6 7
6 2 2 1 2 4 5 5 4 3 1 4 3 3 1 1 0 1 2 4 5 6 7 8 8 9 9 9 8 8 7 7 5 3 2 1 2 3 3 3 3 5 6 7
2 6 1 3 5 4 3 3 3 4 2 5 6 8 6 4 2 1 2 2 4 5 7 8 8 8 8 8 9 7 7 7 5 5 3 2 3 4 3 3 3 4 6 7
2 3 1 2 2 3 2 2 4 6 8 7 5 10 5 4 3 2 2 3 3 3 4 6 6 6 6 6 6 6 6 6 6 6 4 4 3 4 4 4 4 6 6 7
2 3 2 2 2 4 4 2 5 8 9 10 7 10 3 4 1 1 1 1 1 2 2 2 2 2 2 3 4 5 5 5 5 5 4 5 5 4 4 5 5 7 6 6
2 1 3 3 1 2 1 5 6 8 9 9 2 7 2 4 5 5 4 3 2 2 2 3 3 2 1 2 3 4 4 5 4 5 5 5 5 5 6 7 7 7 6 6
2 2 1 3 6 4 6 8 7 6 6 3 3 7 4 9 8 8 7 7 6 6 6 6 6 6 4 3 3 3 4 4 4 4 4 5 5 6 7 7 6 7 7 6
3 1 3 4 7 8 7 9 9 8 7 5 4 5 8 9 9 10 10 11 11 11 10 10 10 9 8 7 6 5 4 3 3 3 3 4 5 6 6 6 7 7 7 7
4 4 1 2 5 8 8 7 7 9 11 10 7 3 9 8 10 11 12 13 14 14 14 14 13 13 12 11 10 9 7 6 6 5 5 4 5 6 7 8 8 7 6 7
6 8 5 2 5 1 5 7 6 8 9 10 7 7 2 7 8 10 11 12 13 13 13 13 12 13 12 12 11 11 10 9 9 8 7 6 7 7 8 9 9 9 9 8
6 8 8 5 5 8 4 4 6 7 8 11 12 4 9 7 7 7 9 10 10 11 11 11 11 11 11 11 11 11 10 10 9 10 9 9 9 9 9 9 9 9 9 9
4 8 10 8 1 1 4 5 6 7 8 8 12 2 9 8 7 7 7 7 8 9 10 10 10 10 10 11 10 10 10 10 10 10 10 10 11 11 11 11 10 10 10 10
3 7 10 7 5 6 5 4 6 8 9 10 13 1 8 6 6 5 6 7 8 9 10 10 10 10 10 10 10 10 10 10 10 10 10 10 11 11 12 12 12 11 11 10
5 9 12 13 11 9 8 6 6 9 10 12 11 2 6 4 4 6 8 9 10 10 11 11 10 10 10 10 10 10 10 9 9 9 9 9 10 10 11 12 12 11 11 11
5 9 10 11 10 8 6 6 7 7 9 10 9 5 6 5 6 8 10 11 12 12 11 10 10 10 9 9 9 9 9 9 9 9 10 10 10 10 10 11 11 11 11 11
4 7 9 10 5 3 1 5 5 4 6 6 5 2 4 5 7 9 10 11 12 12 12 12 12 12 12 11 12 11 11 11 10 11 12 11 10 11 11 11 11 11 11 11
4 5 7 8 1 8 3 7 7 5 4 7 6 5 8 11 11 11 13 14 14 14 14 15 16 15 15 15 14 15 14 13 13 13 14 13 12 12 11 11 11 11 10 10
5 6 6 9 8 8 8 6 7 5 3 2 4 7 10 13 14 15 16 14 14 15 17 18 18 18 17 17 17 16 16 16 16 16 16 15 14 14 13 12 12 11 9 9
4 5 7 7 10 2 7 5 8 8 7 1 6 13 15 16 18 17 11 12 17 19 20 19 19 19 18 18 18 17 17 17 17 17 16 15 15 15 14 14 13 11 10 9
1 4 7 7 10 5 6 7 6 7 6 2 13 17 18 20 18 15 17 20 21 20 19 19 20 20 19 18 17 18 18 18 17 17 16 15 15 16 15 15 14 12 10 10
7 5 6 8 7 4 6 7 9 8 9 14 17 18 19 20 19 21 22 21 21 21 21 21 21 19 18 19 18 19 19 19 18 17 17 16 16 15 16 15 13 12 11 10
7 6 5 6 6 4 5 7 7 10 14 16 18 20 21 22 22 23 23 23 23 22 23 22 20 19 19 19 19 20 20 19 18 18 18 17 16 15 14 14 13 12 12 11
4 6 6 6 5 4 4 7 10 12 15 18 19 21 22 23 24 24 24 23 23 23 23 21 22 22 20 19 19 21 20 19 19 19 18 17 17 15 15 15 14 13 12 10
3 1 4 4 2 5 9 10 12 14 17 19 20 22 23 24 25 26 24 23 23 23 22 21 22 22 21 20 20 20 20 19 19 19 18 17 16 16 15 12 12 12 11 9
3 1 4 6 5 10 8 13 17 18 19 21 21 22 23 25 26 26 23 23 22 22 22 21 21 21 22 21 20 20 19 18 19 19 17 17 16 15 13 13 11 12 11 8
1 2 5 6 9 12 16 17 19 20 20 22 23 24 23 24 25 26 23 22 22 22 22 22 22 22 22 21 20 19 18 17 17 16 15 13 12 11 11 12 11 12 13 9
Wind_Direction
235 249 244 157 262 315 273 256 244 65 27 313 298 298 41 54 176 183 191 188 181 173 161 170 174 174 174 176 175 178 170 172 177 183 216 230 252 274 286 291 322 311 312 316
220 165 42 343 207 216 220 234 229 176 80 300 289 274 275 83 287 300 224 204 186 176 169 171 168 169 171 167 166 166 168 166 174 171 200 259 302 292 304 307 309 304 313 313
37 56 72 187 181 206 216 269 303 307 292 236 264 244 205 172 183 186 214 214 195 183 175 170 169 167 165 163 164 163 162 163 175 182 200 204 226 249 258 284 288 308 311 307
83 67 198 205 179 273 258 6 303 289 281 275 276 280 201 174 196 186 190 188 186 174 171 166 168 163 164 161 159 162 171 174 181 198 219 241 276 297 316 306 310 308 298 305
54 15 316 302 5 304 355 353 284 283 279 275 245 268 220 144 189 56 80 141 167 158 156 147 150 150 162 177 177 181 187 194 198 212 216 236 260 285 295 299 297 296 300 300
321 279 307 338 329 297 204 238 239 247 258 255 254 281 241 68 9 1 27 45 50 60 52 33 21 23 295 237 219 214 211 220 221 227 233 248 271 282 293 295 303 300 304 305
257 223 178 278 276 214 249 280 276 257 246 258 115 266 56 55 34 21 25 33 41 40 30 23 16 8 356 337 313 273 256 251 251 251 254 261 270 274 273 284 294 299 305 309
295 301 31 345 325 314 301 293 289 300 302 303 225 255 90 75 60 52 47 44 42 40 36 30 23 15 10 10 3 349 338 325 319 299 291 281 273 272 280 280 290 294 298 307
306 323 25 346 319 304 292 280 313 287 277 277 270 146 129 97 69 58 54 52 47 43 40 36 32 28 24 23 22 15 11 8 360 345 325 300 292 288 288 284 271 277 284 292
300 300 313 324 254 189 311 308 265 270 285 284 274 256 164 95 64 61 55 52 48 44 42 38 33 29 25 24 24 22 20 17 8 358 344 332 319 304 291 282 283 283 282 283
282 289 297 290 315 329 294 263 294 287 288 293 294 336 60 72 70 68 62 51 42 35 32 28 24 21 18 16 16 14 12 9 5 360 350 341 333 322 306 290 282 277 274 275
296 294 300 300 61 261 288 311 295 292 294 283 284 356 84 86 79 63 51 37 28 19 15 14 11 8 5 4 1 1 358 357 353 350 346 344 337 330 318 307 295 283 273 268
305 282 287 278 185 193 247 278 290 291 284 279 283 51 101 92 72 44 20 6 360 355 354 355 355 353 350 347 345 343 342 341 339 338 336 338 336 331 324 315 303 290 278 269
283 271 281 296 313 320 303 296 283 280 282 290 297 3 112 63 19 0 349 340 334 333 335 338 339 337 336 331 328 325 324 322 321 320 317 319 322 321 317 316 309 297 285 274
277 272 279 286 295 299 304 318 314 301 307 306 327 21 59 20 347 332 325 320 315 315 317 319 316 314 310 308 304 301 300 300 301 300 299 299 303 307 311 314 312 304 291 280
282 287 289 278 280 278 83 22 357 0 348 335 328 65 37 335 308 300 301 300 298 297 298 296 295 295 295 293 291 291 288 285 283 282 282 283 287 294 300 306 308 306 298 288
280 281 286 288 291 248 165 28 5 8 6 339 338 0 329 312 308 303 299 293 292 297 298 300 304 304 303 301 300 297 296 291 284 280 279 279 280 282 287 294 300 303 302 295
315 299 282 295 290 282 75 48 14 349 326 343 328 318 313 304 301 295 286 287 297 305 307 307 307 305 303 302 300 297 296 294 290 286 284 284 283 282 284 285 290 297 300 297
357 316 303 303 300 117 105 36 0 326 302 237 316 320 316 313 304 296 311 323 312 307 304 303 303 302 301 299 298 297 295 293 290 288 287 287 286 285 284 283 284 288 293 295
73 311 302 314 304 324 73 22 338 291 273 50 325 320 319 316 307 315 326 314 306 304 302 301 300 298 296 297 297 294 291 290 290 290 290 289 287 284 282 281 281 280 282 284
323 320 332 321 309 76 42 346 318 298 334 335 320 316 314 311 306 307 308 306 305 302 299 298 297 295 295 295 293 290 289 287 288 288 287 285 282 280 277 275 273 271 271 279
327 328 340 323 312 62 25 342 340 318 317 314 314 313 311 308 304 305 306 305 303 301 300 299 297 294 292 291 289 287 286 287 287 285 283 280 278 276 275 273 271 267 266 269
351 2 341 341 2 32 329 310 310 310 309 313 314 313 309 307 307 307 306 305 303 302 300 299 296 294 291 289 288 286 287 286 284 282 279 278 276 272 270 269 267 262 254 256
121 261 287 279 262 311 311 306 315 319 315 313 311 310 309 308 307 307 306 304 303 301 301 300 298 295 293 292 290 287 286 284 281 278 276 273 270 268 266 263 261 259 256 254
57 252 285 279 314 313 312 326 325 319 313 310 310 310 309 308 306 306 305 305 304 303 302 300 298 296 294 293 290 288 287 285 281 278 274 271 267 264 266 262 257 258 258 258
93 354 326 332 338 314 315 322 319 315 313 313 312 310 309 307 307 307 306 306 305 303 302 300 298 296 295 294 291 289 286 281 277 275 272 269 265 262 260 260 257 238 238 228